Regional Weather Roundup
Issued by NWS Sterling, VA

Home | Current Version | Previous Version | Text Only | Print | Product List | Glossary On
Versions: 1 2 3 4 5 6 7 8 9 10 11 12 13 14 15 16 17 18 19 20 21 22 23 24 25 26 27 28
000
ASUS41 KLWX 252011
RWRLWX

REGIONAL WEATHER ROUNDUP
NATIONAL WEATHER SERVICE BALTIMORE MD/WASHINGTON DC
400 PM EDT TUE APR 25 2017

Note: "FAIR" indicates few or no clouds below 12,000 feet
with no significant weather and/or obstructions to visibility.
 TC=TEMPERATURE CELSIUS

 * =Non NWS site. Station does not report precipitation (e.g. rain,
    snow, etc.), thunder, or fog.

DCZ001-MDZ009-015-VAZ040>042-051-053>054-252100-
WASHINGTON METRO

CITY           SKY/WX    TMP DP  RH WIND       PRES   REMARKS
WASHINGTON NAT DRIZZLE   60  59  96 NE17      29.73F FOG
DULLES         DRIZZLE   59  56  89 NE12G18   29.75F FOG
ANDREWS AFB    CLOUDY    59  58  96 NE17G24   29.71F FOG
FT BELVOIR     CLOUDY    60  57  91 N5        29.72F
QUANTICO       CLOUDY    60  60 100 NE16      29.72F FOG
COLLEGE PARK*  CLOUDY    58  56  93 NE12G17   29.74F
LEESBURG*      LGT RAIN  59  59 100 NE8       29.78F
MANASSAS*        N/A     59  57  93 N10       29.74F FOG

$$

MDZ006>007-011-014-252100-
BALTIMORE METRO

CITY           SKY/WX    TMP DP  RH WIND       PRES   REMARKS
BWI AIRPORT    DRIZZLE   58  57  97 NE15G26   29.76F FOG
MD SCIENCE CTR   N/A     60  55  83 MISG      29.78F
MARTIN STATE   LGT RAIN  59  59 100 N15       29.78F
ANNAPOLIS      CLOUDY    60  58  92 NE10      29.73F FOG
FORT MEADE*    CLOUDY    55  54  94 NE13G21   29.78F

$$

MDZ012-015-019>023-252100-
MARYLAND EASTERN SHORE

CITY           SKY/WX    TMP DP  RH WIND       PRES   REMARKS
OCEAN CITY     CLOUDY    61  61 100 NE9       29.68F FOG
SALISBURY      CLOUDY    63  63 100 NE7       29.69F
BAY BRIDGE AP* CLOUDY    59  57  94 E8G17     29.73F FOG
CAMBRIDGE*     CLOUDY    63  61  94 NE6G14    29.71F
EASTON*        CLOUDY    63  59  88 E9G16     29.77S FOG

$$

MDZ017>025-252100-
SOUTHERN MARYLAND

CITY           SKY/WX    TMP DP  RH WIND       PRES   REMARKS
PATUXENT RIVER CLOUDY    63  63 100 NE12      29.69F
ST INIGOES     CLOUDY    65  63  93 NE9       29.67F
LEONARDTOWN*   CLOUDY    61  59  94 CALM      29.71S

$$

MDZ003>005-252100-
NORTH CENTRAL MARYLAND

CITY           SKY/WX    TMP DP  RH WIND       PRES   REMARKS
FREDERICK*     CLOUDY    61  61 100 NE9       29.82F FOG
HAGERSTOWN APT LGT RAIN  57  55  93 N10       29.80F
WESTMINSTER*   DRIZZLE   57  57 100 NE13G18   29.78F

$$

MDZ501>502-252100-
WESTERN MARYLAND

CITY           SKY/WX    TMP DP  RH WIND       PRES   REMARKS
OAKLAND*       CLOUDY    48  48 100 E13G18    29.81F FOG
CUMBERLAND*      N/A     57  57 100 N3          N/A

$$

VAZ025>031-252100-
SHENANDOAH VALLEY

CITY           SKY/WX    TMP DP  RH WIND       PRES   REMARKS
WINCHESTER*    DRIZZLE   54  52  94 N7        29.79F
FRONT ROYAL*   CLOUDY    54  54 100 N8        29.78F
LURAY*         DRIZZLE   55  55 100 N6        29.77F
NEW MARKET*    CLOUDY    55  53  92 N12       29.78F
STAUNTON*      RAIN      54  53  95 N12       29.79S
WAYNESBORO*    CLOUDY    54  54 100 N10G17    29.76F

$$

WVZ021-048>050-054>055-252100-
EASTERN WEST VIRGINIA PANHANDLE

CITY           SKY/WX    TMP DP  RH WIND       PRES   REMARKS
MARTINSBURG    LGT RAIN  55  54  96 N14       29.79F FOG
PETERSBURG*    DRIZZLE   57  55  94 N7        29.82F

$$

VAZ036>039-050-252100-
CENTRAL FOOTHILLS

CITY           SKY/WX    TMP DP  RH WIND       PRES   REMARKS
CHARLOTTESVILL CLOUDY    60  57  89 NE10      29.73F FOG
CULPEPER*      DRIZZLE   60  59  97 N8        29.75S
ORANGE*        CLOUDY    59  57  94 NE8G17    29.72F FOG
GORDONSVILLE*  CLOUDY    59  58  97 NE12G20   29.71F FOG
WARRENTON*     LGT RAIN  60  56  88 N10G20    29.74S

$$

VAZ055>057-252100-
NORTH AND CENTRAL PIEDMONT

CITY           SKY/WX    TMP DP  RH WIND       PRES   REMARKS
FREDERICKSBRG* CLOUDY    60  60 100 N8        29.70S
STAFFORD*      DRIZZLE   58  58 100 N3        29.76S

$$

NCZ024-NYZ072-PAZ021-071-VAZ022-071-252100-
OTHER REGIONAL OBSERVATIONS

CITY           SKY/WX    TMP DP  RH WIND       PRES   REMARKS
NEW YORK CITY  LGT RAIN  53  52  96 E14G33    30.00F
PHILADELPHIA   LGT RAIN  57  54  89 NE20G28   29.84F FOG
PITTSBURGH     CLOUDY    65  54  67 E8        29.82F
ROANOKE        CLOUDY    60  56  86 N10       29.75F
RICHMOND       PTSUNNY   68  64  87 N12       29.64F
RALEIGH        PTSUNNY   69  59  70 W7        29.64F

$$

ANZ530>537-252100-
MARINE OBSERVATIONS

STATION/POSITION TIME  TEMP    WIND        PRES
                       AIR SEA DIR/SP/G
                 (UTC) (F)     (DEG/KT/KT) (MB)
THOMAS PT LIGHT  2000   58 56   30/ 12/ 14   N/A
BALT KEY BRIDGE  1948   58      50/ 17/ 21 1007.3F
COVE POINT       1948   61      70/ 15/ 17 1006.3F
LEWISETTA        1948   62 60   70/ 11/ 13 1004.4F
SOLOMONS ISLAND  1948   62 60   50/ 10/ 14   N/A
PINEY POINT      1948           90/  6/  8   N/A

$$





USA.gov is the U.S. government's official web portal to all federal, state and local government web resources and services.